TVS4418 CYVR-BIKF

Flight info

Callsign TVS4418
Flight time N/A
Altitude 35000
Route YVR4/08R JANEK DCT LYTON DCT LONRO DCT YZU J527 YMM DCT 62N100W 6530N09000W 6730N08000W 6830N07000W DCT BOPUT DCT 69N060W 69N050W 68N040W 66N030W DCT INDES DCT INGAN
Aircraft B738/M-SDE2E3FGHIRWXY/LB1

Departure

Time N/A
Airport Vancouver International Airport (CYVR)

Arrival

Time 2026-05-07 22:31
Airport Keflavik International Airport (BIKF)
Time Latitude Longitude Altitude Speed Heading
2026-05-07 20:25 69.03405 -58.65138 38122 ft 437 kts 88°
2026-05-07 20:26 69.03758 -58.48177 38122 ft 437 kts 89°
2026-05-07 20:26 69.04095 -58.31205 38128 ft 438 kts 89°
2026-05-07 20:27 69.04415 -58.14225 38126 ft 437 kts 89°
2026-05-07 20:27 69.04719 -57.97249 38125 ft 438 kts 89°
2026-05-07 20:28 69.05003 -57.80371 38138 ft 438 kts 89°
2026-05-07 20:28 69.05273 -57.63382 38417 ft 436 kts 89°
2026-05-07 20:28 69.05400 -57.54930 38613 ft 434 kts 89°
2026-05-07 20:29 69.05524 -57.46489 38823 ft 433 kts 89°
2026-05-07 20:29 69.05642 -57.38100 38987 ft 431 kts 89°
2026-05-07 20:29 69.05756 -57.29758 39119 ft 429 kts 90°
2026-05-07 20:30 69.05972 -57.12985 39139 ft 433 kts 90°
2026-05-07 20:30 69.06172 -56.96099 39152 ft 436 kts 90°
2026-05-07 20:31 69.06358 -56.79057 39148 ft 440 kts 90°
2026-05-07 20:31 69.06528 -56.61990 39150 ft 443 kts 90°
2026-05-07 20:32 69.06682 -56.44697 39146 ft 446 kts 90°
2026-05-07 20:32 69.06820 -56.27350 39136 ft 445 kts 90°
2026-05-07 20:33 69.06941 -56.10194 39135 ft 438 kts 91°
2026-05-07 20:33 69.07042 -55.93195 39147 ft 437 kts 91°
2026-05-07 20:34 69.07125 -55.76300 39151 ft 436 kts 91°
2026-05-07 20:34 69.07191 -55.59288 39148 ft 437 kts 91°
2026-05-07 20:35 69.07240 -55.42286 39149 ft 437 kts 91°
2026-05-07 20:35 69.07273 -55.25240 39153 ft 438 kts 91°
2026-05-07 20:36 69.07290 -55.08266 39154 ft 440 kts 91°
2026-05-07 20:36 69.07290 -54.91125 39151 ft 441 kts 91°
2026-05-07 20:37 69.07273 -54.73921 39155 ft 442 kts 92°
2026-05-07 20:37 69.07238 -54.56706 39153 ft 443 kts 92°
2026-05-07 20:38 69.07186 -54.39483 39154 ft 443 kts 92°
2026-05-07 20:38 69.07117 -54.22186 39151 ft 444 kts 92°
2026-05-07 20:39 69.07030 -54.05027 39153 ft 444 kts 92°
2026-05-07 20:39 69.06925 -53.87723 39147 ft 445 kts 92°
2026-05-07 20:40 69.06804 -53.70428 39151 ft 445 kts 92°
2026-05-07 20:40 69.06664 -53.53124 39150 ft 445 kts 92°
2026-05-07 20:41 69.06507 -53.35799 39149 ft 445 kts 93°
2026-05-07 20:41 69.06334 -53.18605 39147 ft 445 kts 93°
2026-05-07 20:42 69.06143 -53.01299 39144 ft 445 kts 93°
2026-05-07 20:42 69.05934 -52.83999 39142 ft 445 kts 93°
2026-05-07 20:43 69.05707 -52.66711 39143 ft 445 kts 93°
2026-05-07 20:43 69.05463 -52.49389 39143 ft 446 kts 94°
2026-05-07 20:44 69.05203 -52.32168 39131 ft 446 kts 94°
2026-05-07 20:44 69.04923 -52.14844 39138 ft 446 kts 94°
2026-05-07 20:45 69.04626 -51.97503 39139 ft 446 kts 94°
2026-05-07 20:45 69.04312 -51.80193 39135 ft 446 kts 94°
2026-05-07 20:46 69.03980 -51.62881 39129 ft 446 kts 94°
2026-05-07 20:46 69.03633 -51.45672 39129 ft 447 kts 94°
2026-05-07 20:47 69.03265 -51.28317 39126 ft 447 kts 95°
2026-05-07 20:47 69.02879 -51.10965 39127 ft 448 kts 95°
2026-05-07 20:48 69.02476 -50.93599 39125 ft 448 kts 95°
2026-05-07 20:48 69.02057 -50.76307 39123 ft 448 kts 95°
2026-05-07 20:49 69.01618 -50.58939 39120 ft 449 kts 95°
2026-05-07 20:49 69.01161 -50.41535 39121 ft 449 kts 95°
2026-05-07 20:50 69.00689 -50.24229 39124 ft 450 kts 95°
2026-05-07 20:50 69.00201 -50.06836 39125 ft 450 kts 96°
2026-05-07 20:51 68.99431 -49.89526 39142 ft 449 kts 102°
2026-05-07 20:51 68.98230 -49.72453 39140 ft 449 kts 103°
2026-05-07 20:52 68.96990 -49.55506 39151 ft 448 kts 103°
2026-05-07 20:52 68.95762 -49.38480 39158 ft 448 kts 103°
2026-05-07 20:53 68.94747 -49.24320 39170 ft 449 kts 103°
2026-05-07 20:53 68.93519 -49.07289 39179 ft 449 kts 103°
2026-05-07 20:54 68.92277 -48.90295 39186 ft 449 kts 103°
2026-05-07 20:54 68.91014 -48.73300 39200 ft 449 kts 103°
2026-05-07 20:55 68.89732 -48.56296 39214 ft 450 kts 103°
2026-05-07 20:55 68.88438 -48.39397 39223 ft 451 kts 103°
2026-05-07 20:56 68.87113 -48.22274 39230 ft 452 kts 103°
2026-05-07 20:56 68.85771 -48.05233 39245 ft 453 kts 104°
2026-05-07 20:57 68.84418 -47.88282 39244 ft 454 kts 104°
2026-05-07 20:57 68.83036 -47.71224 39256 ft 454 kts 104°
2026-05-07 20:58 68.81637 -47.54149 39257 ft 456 kts 104°
2026-05-07 20:58 68.80218 -47.37067 39254 ft 457 kts 104°
2026-05-07 20:59 68.78780 -47.19973 39249 ft 457 kts 104°
2026-05-07 20:59 68.77320 -47.02854 39255 ft 458 kts 104°
2026-05-07 21:00 68.75841 -46.85753 39248 ft 459 kts 104°
2026-05-07 21:00 68.74352 -46.68751 39247 ft 459 kts 104°
2026-05-07 21:01 68.72835 -46.51630 39247 ft 460 kts 105°
2026-05-07 21:01 68.71297 -46.34494 39240 ft 461 kts 105°
2026-05-07 21:02 68.69738 -46.17364 39240 ft 461 kts 105°
2026-05-07 21:02 68.68163 -46.00270 39247 ft 461 kts 105°
2026-05-07 21:03 68.66569 -45.83180 39246 ft 462 kts 105°
2026-05-07 21:03 68.64966 -45.66187 39251 ft 462 kts 105°
2026-05-07 21:04 68.63338 -45.49134 39263 ft 461 kts 105°
2026-05-07 21:04 68.61693 -45.32099 39277 ft 462 kts 105°
2026-05-07 21:05 68.60030 -45.15101 39271 ft 462 kts 105°
2026-05-07 21:05 68.58357 -44.98217 39282 ft 462 kts 105°
2026-05-07 21:06 68.56653 -44.81211 39286 ft 462 kts 106°
2026-05-07 21:06 68.54939 -44.64277 39284 ft 462 kts 106°
2026-05-07 21:07 68.53203 -44.47340 39288 ft 462 kts 106°
2026-05-07 21:07 68.51464 -44.30540 39291 ft 462 kts 106°
2026-05-07 21:08 68.49695 -44.13655 39286 ft 463 kts 106°
2026-05-07 21:08 68.47907 -43.96777 39285 ft 463 kts 107°
2026-05-07 21:09 68.46110 -43.80005 39279 ft 464 kts 107°
2026-05-07 21:09 68.44282 -43.63125 39266 ft 465 kts 107°
2026-05-07 21:10 68.42434 -43.46237 39272 ft 466 kts 107°
2026-05-07 21:10 68.40575 -43.29445 39271 ft 467 kts 107°
2026-05-07 21:11 68.38685 -43.12537 39264 ft 467 kts 107°
2026-05-07 21:11 68.35816 -42.87234 39263 ft 468 kts 107°
2026-05-07 21:12 68.33893 -42.70488 39261 ft 469 kts 107°
2026-05-07 21:12 68.31937 -42.53626 39255 ft 470 kts 107°
2026-05-07 21:13 68.29960 -42.36760 39245 ft 471 kts 107°
2026-05-07 21:13 68.27962 -42.19903 39240 ft 472 kts 107°
2026-05-07 21:14 68.25943 -42.03042 39231 ft 472 kts 108°
2026-05-07 21:14 68.23905 -41.86184 39226 ft 473 kts 108°
2026-05-07 21:15 68.21852 -41.69364 39208 ft 473 kts 108°
2026-05-07 21:15 68.19775 -41.52533 39200 ft 474 kts 108°
2026-05-07 21:16 68.17690 -41.35809 39194 ft 474 kts 108°
2026-05-07 21:16 68.15575 -41.19001 39187 ft 475 kts 108°
2026-05-07 21:17 68.13440 -41.02206 39179 ft 475 kts 108°
2026-05-07 21:17 68.11287 -40.85431 39179 ft 476 kts 108°
2026-05-07 21:18 68.09118 -40.68687 39179 ft 476 kts 108°
2026-05-07 21:18 68.06924 -40.51925 39183 ft 476 kts 108°
2026-05-07 21:19 68.04718 -40.35225 39187 ft 477 kts 108°
2026-05-07 21:19 68.02492 -40.18516 39191 ft 477 kts 108°
2026-05-07 21:20 68.00251 -40.01846 39191 ft 478 kts 108°
2026-05-07 21:20 67.97848 -39.85397 39202 ft 479 kts 111°
2026-05-07 21:21 67.95265 -39.69250 39209 ft 479 kts 112°
2026-05-07 21:21 67.92606 -39.52754 39218 ft 479 kts 111°
2026-05-07 21:22 67.89987 -39.36434 39229 ft 480 kts 111°
2026-05-07 21:22 67.87365 -39.20114 39243 ft 481 kts 111°
2026-05-07 21:23 67.84739 -39.03892 39253 ft 482 kts 112°
2026-05-07 21:23 67.82077 -38.87577 39266 ft 483 kts 112°
2026-05-07 21:24 67.79393 -38.71279 39276 ft 484 kts 112°
2026-05-07 21:24 67.76687 -38.54979 39286 ft 485 kts 112°
2026-05-07 21:25 67.73962 -38.38703 39291 ft 485 kts 112°
2026-05-07 21:25 67.71212 -38.22424 39301 ft 486 kts 112°
2026-05-07 21:26 67.68459 -38.06248 39307 ft 486 kts 112°
2026-05-07 21:26 67.65677 -37.90033 39304 ft 487 kts 112°
2026-05-07 21:27 67.62874 -37.73836 39305 ft 487 kts 112°
2026-05-07 21:27 67.60050 -37.57662 39296 ft 487 kts 112°
2026-05-07 21:28 67.57217 -37.41545 39297 ft 487 kts 112°
2026-05-07 21:28 67.54380 -37.25538 39286 ft 488 kts 112°
2026-05-07 21:29 67.51504 -37.09441 39272 ft 487 kts 112°
2026-05-07 21:29 67.48614 -36.93398 39247 ft 488 kts 112°
2026-05-07 21:30 67.45727 -36.77486 39222 ft 488 kts 113°
2026-05-07 21:30 67.42800 -36.61491 39197 ft 488 kts 113°
2026-05-07 21:31 67.39860 -36.45554 39169 ft 488 kts 113°
2026-05-07 21:31 67.36904 -36.29650 39143 ft 488 kts 113°
2026-05-07 21:32 67.33953 -36.13892 39128 ft 487 kts 113°
2026-05-07 21:32 67.30965 -35.98063 39119 ft 488 kts 113°
2026-05-07 21:33 67.27966 -35.82292 39099 ft 488 kts 113°
2026-05-07 21:33 67.24974 -35.66678 39100 ft 488 kts 113°
2026-05-07 21:34 67.21937 -35.50954 39101 ft 489 kts 114°
2026-05-07 21:34 67.18886 -35.35276 39104 ft 489 kts 114°
2026-05-07 21:35 67.15820 -35.19633 39104 ft 489 kts 114°
2026-05-07 21:35 67.12732 -35.04012 39124 ft 489 kts 114°
2026-05-07 21:36 67.09632 -34.88436 39134 ft 489 kts 114°
2026-05-07 21:36 67.06519 -34.72902 39154 ft 489 kts 114°
2026-05-07 21:37 67.03394 -34.57424 39169 ft 489 kts 114°
2026-05-07 21:37 67.00254 -34.41993 39199 ft 488 kts 114°
2026-05-07 21:38 66.97103 -34.26622 39214 ft 488 kts 114°
2026-05-07 21:38 66.93956 -34.11373 39228 ft 488 kts 114°
2026-05-07 21:39 66.90776 -33.96086 39246 ft 488 kts 114°
2026-05-07 21:39 66.87575 -33.80809 39254 ft 488 kts 115°
2026-05-07 21:40 66.84378 -33.65646 39250 ft 489 kts 115°
2026-05-07 21:40 66.81147 -33.50435 39255 ft 489 kts 115°
2026-05-07 21:41 66.78448 -33.37814 39254 ft 489 kts 115°
2026-05-07 21:41 66.75189 -33.22684 39250 ft 489 kts 115°
2026-05-07 21:42 66.71915 -33.07582 39250 ft 489 kts 115°
2026-05-07 21:42 66.68629 -32.92545 39248 ft 488 kts 115°
2026-05-07 21:43 66.65329 -32.77536 39245 ft 488 kts 115°
2026-05-07 21:43 66.62039 -32.62681 39248 ft 488 kts 115°
2026-05-07 21:44 66.58716 -32.47771 39248 ft 488 kts 116°
2026-05-07 21:44 66.55383 -32.32926 39241 ft 487 kts 116°
2026-05-07 21:45 66.52038 -32.18104 39248 ft 487 kts 116°
2026-05-07 21:45 66.48696 -32.03418 39238 ft 487 kts 116°
2026-05-07 21:46 66.45326 -31.88723 39244 ft 486 kts 116°
2026-05-07 21:46 66.41940 -31.74054 39244 ft 487 kts 116°
2026-05-07 21:47 66.38537 -31.59398 39254 ft 488 kts 117°
2026-05-07 21:47 66.35111 -31.44755 39247 ft 489 kts 117°
2026-05-07 21:48 66.31662 -31.30120 39247 ft 491 kts 117°
2026-05-07 21:48 66.28197 -31.15475 39253 ft 491 kts 117°
2026-05-07 21:49 66.24726 -31.00936 39250 ft 492 kts 117°
2026-05-07 21:49 66.21219 -30.86317 39251 ft 493 kts 117°
2026-05-07 21:50 66.17688 -30.71734 39251 ft 493 kts 117°
2026-05-07 21:50 66.14174 -30.57308 39253 ft 492 kts 117°
2026-05-07 21:51 66.10636 -30.42860 39251 ft 491 kts 118°
2026-05-07 21:51 66.07080 -30.28449 39253 ft 492 kts 118°
2026-05-07 21:52 66.03516 -30.14072 39256 ft 492 kts 118°
2026-05-07 21:52 65.99941 -29.99735 39253 ft 491 kts 116°
2026-05-07 21:53 65.96699 -29.85019 39259 ft 489 kts 114°
2026-05-07 21:53 65.93625 -29.70259 39262 ft 489 kts 113°
2026-05-07 21:54 65.90513 -29.55482 39259 ft 489 kts 114°
2026-05-07 21:54 65.87350 -29.40748 39259 ft 488 kts 114°
2026-05-07 21:55 65.84159 -29.26067 39264 ft 489 kts 114°
2026-05-07 21:55 65.80956 -29.11425 39260 ft 490 kts 114°
2026-05-07 21:56 65.77728 -28.96776 39260 ft 490 kts 115°
2026-05-07 21:56 65.74472 -28.82090 38982 ft 496 kts 115°
2026-05-07 21:57 65.72831 -28.74717 38737 ft 495 kts 115°
2026-05-07 21:57 65.71190 -28.67390 38458 ft 491 kts 114°
2026-05-07 21:57 65.69560 -28.60133 38192 ft 490 kts 114°
2026-05-07 21:57 65.67926 -28.52875 37933 ft 491 kts 114°
2026-05-07 21:58 65.66283 -28.45597 37681 ft 492 kts 114°
2026-05-07 21:58 65.64635 -28.38322 37425 ft 493 kts 114°
2026-05-07 21:58 65.62997 -28.31118 37176 ft 493 kts 114°
2026-05-07 21:58 65.61334 -28.23828 36934 ft 494 kts 114°
2026-05-07 21:59 65.59666 -28.16545 36685 ft 495 kts 114°
2026-05-07 21:59 65.57992 -28.09259 36443 ft 495 kts 114°
2026-05-07 21:59 65.56314 -28.01978 36207 ft 496 kts 114°
2026-05-07 21:59 65.54629 -27.94697 35974 ft 496 kts 114°
2026-05-07 22:00 65.52941 -27.87424 35736 ft 496 kts 114°
2026-05-07 22:00 65.51273 -27.80256 35506 ft 496 kts 114°
2026-05-07 22:00 65.49577 -27.72997 35273 ft 497 kts 113°
2026-05-07 22:00 65.47877 -27.65745 35044 ft 497 kts 113°
2026-05-07 22:01 65.46173 -27.58497 34821 ft 497 kts 113°
2026-05-07 22:01 65.44464 -27.51251 34601 ft 497 kts 113°
2026-05-07 22:01 65.42755 -27.44030 34372 ft 497 kts 113°
2026-05-07 22:01 65.41042 -27.36820 34123 ft 497 kts 113°
2026-05-07 22:02 65.39350 -27.29720 33866 ft 496 kts 113°
2026-05-07 22:02 65.37629 -27.22523 33598 ft 496 kts 113°
2026-05-07 22:02 65.35905 -27.15341 33338 ft 496 kts 114°
2026-05-07 22:02 65.34182 -27.08181 33079 ft 495 kts 114°
2026-05-07 22:03 65.32456 -27.01033 32819 ft 495 kts 114°
2026-05-07 22:03 65.30732 -26.93914 32570 ft 495 kts 114°
2026-05-07 22:03 65.29004 -26.86801 32317 ft 495 kts 114°
2026-05-07 22:03 65.27264 -26.79655 32068 ft 497 kts 114°
2026-05-07 22:04 65.25517 -26.72511 31817 ft 497 kts 114°
2026-05-07 22:04 65.23765 -26.65374 31567 ft 496 kts 114°
2026-05-07 22:04 65.22042 -26.58371 31327 ft 496 kts 114°
2026-05-07 22:04 65.20295 -26.51291 31085 ft 495 kts 114°
2026-05-07 22:05 65.18547 -26.44231 30849 ft 495 kts 114°
2026-05-07 22:05 65.16791 -26.37189 30611 ft 494 kts 115°
2026-05-07 22:05 65.14871 -26.30347 30368 ft 497 kts 119°
2026-05-07 22:05 65.12828 -26.23696 30090 ft 498 kts 121°
2026-05-07 22:06 65.10743 -26.17139 29806 ft 498 kts 121°
2026-05-07 22:06 65.08648 -26.10608 29523 ft 497 kts 121°
2026-05-07 22:06 65.06555 -26.04066 29246 ft 497 kts 121°
2026-05-07 22:06 65.04468 -25.97503 28967 ft 497 kts 121°
2026-05-07 22:07 65.02417 -25.91025 28697 ft 497 kts 121°
2026-05-07 22:07 65.00340 -25.84447 28426 ft 498 kts 121°
2026-05-07 22:07 64.98263 -25.77874 28157 ft 498 kts 121°
2026-05-07 22:07 64.96185 -25.71307 27881 ft 498 kts 122°
2026-05-07 22:08 64.94107 -25.64763 27625 ft 499 kts 122°
2026-05-07 22:08 64.92024 -25.58229 27361 ft 499 kts 122°
2026-05-07 22:08 64.89939 -25.51709 27099 ft 499 kts 122°
2026-05-07 22:08 64.87902 -25.45360 26847 ft 499 kts 122°
2026-05-07 22:09 64.85819 -25.38889 26592 ft 499 kts 122°
2026-05-07 22:09 64.83720 -25.32387 26334 ft 498 kts 122°
2026-05-07 22:09 64.81622 -25.25905 26086 ft 498 kts 123°
2026-05-07 22:09 64.79523 -25.19438 25835 ft 498 kts 123°
2026-05-07 22:10 64.77423 -25.12988 25524 ft 498 kts 123°
2026-05-07 22:10 64.75311 -25.06517 25132 ft 499 kts 123°
2026-05-07 22:10 64.73216 -25.00124 24631 ft 491 kts 123°
2026-05-07 22:10 64.71150 -24.93842 24143 ft 482 kts 123°
2026-05-07 22:11 64.69110 -24.87647 23625 ft 478 kts 123°
2026-05-07 22:11 64.67084 -24.81507 23066 ft 475 kts 124°
2026-05-07 22:11 64.65073 -24.75429 22506 ft 471 kts 124°
2026-05-07 22:11 64.63072 -24.69398 21962 ft 467 kts 124°
2026-05-07 22:12 64.61114 -24.63512 21429 ft 463 kts 124°
2026-05-07 22:12 64.59143 -24.57598 20899 ft 459 kts 124°
2026-05-07 22:12 64.57184 -24.51741 20375 ft 455 kts 125°
2026-05-07 22:12 64.55303 -24.45874 19861 ft 449 kts 121°
2026-05-07 22:13 64.53653 -24.39766 19364 ft 443 kts 117°
2026-05-07 22:13 64.52131 -24.33583 18851 ft 439 kts 116°
2026-05-07 22:13 64.50645 -24.27407 18197 ft 437 kts 116°
2026-05-07 22:13 64.49162 -24.21297 17500 ft 431 kts 117°
2026-05-07 22:14 64.47680 -24.15306 16815 ft 426 kts 117°
2026-05-07 22:14 64.46200 -24.09421 16140 ft 420 kts 118°
2026-05-07 22:14 64.44727 -24.03637 15485 ft 414 kts 118°
2026-05-07 22:14 64.43266 -23.97942 14853 ft 409 kts 118°
2026-05-07 22:15 64.41819 -23.92325 14227 ft 404 kts 119°
2026-05-07 22:15 64.40385 -23.86778 13543 ft 399 kts 119°
2026-05-07 22:15 64.38967 -23.81302 12858 ft 395 kts 119°
2026-05-07 22:15 64.37562 -23.75884 12295 ft 389 kts 119°
2026-05-07 22:16 64.36188 -23.70604 11902 ft 379 kts 119°
2026-05-07 22:16 64.34875 -23.65568 11635 ft 367 kts 119°
2026-05-07 22:16 64.33579 -23.60605 11357 ft 356 kts 118°
2026-05-07 22:16 64.32317 -23.55779 11094 ft 347 kts 118°
2026-05-07 22:17 64.31088 -23.51080 10869 ft 337 kts 118°
2026-05-07 22:17 64.29892 -23.46521 10658 ft 328 kts 118°
2026-05-07 22:17 64.28722 -23.42082 10449 ft 320 kts 118°
2026-05-07 22:17 64.27524 -23.37823 10196 ft 316 kts 128°
2026-05-07 22:18 64.25833 -23.34657 9908 ft 314 kts 150°
2026-05-07 22:18 64.22172 -23.30680 9404 ft 305 kts 154°
2026-05-07 22:18 64.20251 -23.28679 9121 ft 302 kts 154°
2026-05-07 22:19 64.18349 -23.26694 8848 ft 299 kts 154°
2026-05-07 22:19 64.16462 -23.24712 8575 ft 297 kts 154°
2026-05-07 22:19 64.14589 -23.22735 8307 ft 296 kts 153°
2026-05-07 22:19 64.12748 -23.20790 8044 ft 295 kts 153°
2026-05-07 22:20 64.10891 -23.18826 7785 ft 294 kts 153°
2026-05-07 22:20 64.09040 -23.16866 7519 ft 293 kts 153°
2026-05-07 22:20 64.07199 -23.14917 7258 ft 291 kts 153°
2026-05-07 22:20 64.05361 -23.12974 7004 ft 291 kts 153°
2026-05-07 22:21 64.03530 -23.11042 6743 ft 290 kts 153°
2026-05-07 22:21 64.01708 -23.09120 6476 ft 287 kts 153°
2026-05-07 22:21 63.99905 -23.07224 6200 ft 284 kts 153°
2026-05-07 22:21 63.98117 -23.05345 5927 ft 281 kts 153°
2026-05-07 22:22 63.96349 -23.03492 5655 ft 278 kts 152°
2026-05-07 22:22 63.94599 -23.01654 5387 ft 276 kts 152°
2026-05-07 22:22 63.92866 -22.99837 5124 ft 273 kts 152°
2026-05-07 22:22 63.91143 -22.98034 4849 ft 271 kts 152°
2026-05-07 22:23 63.89436 -22.96250 4577 ft 270 kts 152°
2026-05-07 22:23 63.87736 -22.94478 4295 ft 268 kts 152°
2026-05-07 22:23 63.86052 -22.92722 4064 ft 265 kts 152°
2026-05-07 22:23 63.84390 -22.90992 3855 ft 261 kts 152°
2026-05-07 22:24 63.82755 -22.89293 3661 ft 256 kts 152°
2026-05-07 22:24 63.81155 -22.87633 3529 ft 250 kts 152°
2026-05-07 22:24 63.79604 -22.86030 3486 ft 240 kts 152°
2026-05-07 22:24 63.78289 -22.84012 3472 ft 218 kts 122°
2026-05-07 22:25 63.77685 -22.81091 3321 ft 198 kts 94°
2026-05-07 22:25 63.77644 -22.78098 3100 ft 186 kts 74°
2026-05-07 22:25 63.77991 -22.75361 2894 ft 179 kts 64°
2026-05-07 22:25 63.78271 -22.73626 2743 ft 176 kts 64°
2026-05-07 22:26 63.78695 -22.71033 2559 ft 175 kts 63°
2026-05-07 22:26 63.79115 -22.68474 2536 ft 173 kts 63°
2026-05-07 22:26 63.79818 -22.66323 2383 ft 173 kts 30°
2026-05-07 22:26 63.80843 -22.64977 2214 ft 169 kts 28°
2026-05-07 22:27 63.82156 -22.63237 1945 ft 161 kts 28°
2026-05-07 22:27 63.82796 -22.62388 1846 ft 155 kts 28°
2026-05-07 22:27 63.83718 -22.61215 1802 ft 150 kts 23°
2026-05-07 22:27 63.84715 -22.60726 1796 ft 147 kts
2026-05-07 22:28 63.85736 -22.60613 1806 ft 147 kts
2026-05-07 22:28 63.86763 -22.60567 1796 ft 145 kts
2026-05-07 22:28 63.87736 -22.60555 1793 ft 136 kts
2026-05-07 22:28 63.88672 -22.60552 1791 ft 136 kts
2026-05-07 22:29 63.89651 -22.60550 1613 ft 141 kts
2026-05-07 22:29 63.90613 -22.60548 1419 ft 135 kts
2026-05-07 22:29 63.91540 -22.60549 1234 ft 132 kts
2026-05-07 22:29 63.92450 -22.60546 1037 ft 133 kts
2026-05-07 22:30 63.93395 -22.60548 827 ft 137 kts
2026-05-07 22:30 63.94338 -22.60546 627 ft 137 kts
2026-05-07 22:30 63.95291 -22.60557 421 ft 135 kts
2026-05-07 22:30 63.96209 -22.60551 248 ft 133 kts
2026-05-07 22:31 63.97106 -22.60545 164 ft 120 kts
2026-05-07 22:31 63.97810 -22.60541 171 ft 79 kts
2026-05-07 22:31 63.98206 -22.60540 172 ft 35 kts 360°
2026-05-07 22:31 63.98420 -22.60539 173 ft 29 kts
2026-05-07 22:32 63.98619 -22.60539 171 ft 28 kts
2026-05-07 22:32 63.98781 -22.60557 170 ft 18 kts 332°
2026-05-07 22:32 63.98870 -22.60757 169 ft 18 kts 314°
2026-05-07 22:32 63.98954 -22.60931 166 ft 14 kts 337°
2026-05-07 22:33 63.99046 -22.60938 165 ft 13 kts
2026-05-07 22:33 63.99138 -22.60941 161 ft 11 kts 352°
2026-05-07 22:33 63.99174 -22.61091 157 ft 13 kts 270°
2026-05-07 22:33 63.99173 -22.61329 152 ft 16 kts 270°
2026-05-07 22:34 63.99173 -22.61611 146 ft 19 kts 270°
2026-05-07 22:34 63.99173 -22.61940 139 ft 22 kts 270°
2026-05-07 22:34 63.99173 -22.62280 139 ft 21 kts 270°
2026-05-07 22:34 63.99172 -22.62542 139 ft 11 kts 269°
2026-05-07 22:35 63.99198 -22.62672 139 ft 10 kts 356°
2026-05-07 22:35 63.99261 -22.62730 139 ft 10 kts 325°
2026-05-07 22:35 63.99328 -22.62745 139 ft 10 kts 359°
2026-05-07 22:35 63.99393 -22.62718 139 ft 10 kts 27°
2026-05-07 22:36 63.99452 -22.62656 139 ft 9 kts 15°
2026-05-07 22:36 63.99512 -22.62653 139 ft 8 kts 360°
2026-05-07 22:36 63.99542 -22.62586 139 ft 7 kts 87°
2026-05-07 22:36 63.99543 -22.62492 139 ft 4 kts 89°
2026-05-07 22:37 63.99543 -22.62472 139 ft 0 kts 89°